Location: Bergnershof
(48.9468°N, 10.9431°E)
Time: 05:13:57
(UTC+00:00)

Cosmos 1697 Rocket - Pass Details

Date: 03 March 2021
Orbit: 834 x 842 km, 71.0° (Epoch: 11 April)

Event Time Altitude Azimuth Distance (km) Brightness Sun altitude
Rises 17:30:58 0° 239° (WSW) 3,390 7.1 -5.4°
Reaches altitude 10° 17:33:40 10° 249° (WSW) 2,458 6.6 -5.8°
Maximum altitude 17:38:40 32° 312° (NW) 1,418 4.5 -6.7°
Drops below altitude 10° 17:43:42 10° 15° (NNE) 2,465 5.0 -7.5°
Sets 17:46:26 0° 25° (NNE) 3,402 5.6 -7.9°
